Stations météo

Publicité
Abbeville, France (7005): Température de l'air & dewpoint: 20.01.2020 00:00:00 - 26.01.2020 00:00:00 (CET)Abbeville, France (7005): Température de l'air 5cm: 20.01.2020 00:00:00 - 26.01.2020 00:00:00 (CET)Abbeville, France (7005): Température de l'air -20cm & Température de l'air -100cm: 20.01.2020 00:00:00 - 26.01.2020 00:00:00 (CET)Abbeville, France (7005): Vitesse du vent & gusts: 20.01.2020 00:00:00 - 26.01.2020 00:00:00 (CET)Abbeville, France (7005): Direction du vent: 20.01.2020 00:00:00 - 26.01.2020 00:00:00 (CET)Abbeville, France (7005): reduced air pressure: 20.01.2020 00:00:00 - 26.01.2020 00:00:00 (CET)Abbeville, France (7005): visibility: 20.01.2020 00:00:00 - 26.01.2020 00:00:00 (CET)Abbeville, France (7005): Ensoleillement: 20.01.2020 00:00:00 - 26.01.2020 00:00:00 (CET)Abbeville, France (7005): Quantités de précipitations: 20.01.2020 00:00:00 - 26.01.2020 00:00:00 (CET)
Date & Time tt [°C] td [°C] tt 5cm [°C] tt -20cm [°C] tt -100cm [°C] ff [km/h] ff [knt] fx [km/h] fx [knt] dd ppp [hPa] vv [km] sd [min] rr [mm]
26.01.2020 00:00:00 3,0 3,0 2,8 4,2 7,5 11 6 19 11 SE 1017,4 1,3 0 0,0
25.01.2020 23:00:00 3,0 3,0 2,7 4,2 7,6 14 8 24 13 SE 1018,0 0,3 0 0,0
25.01.2020 22:00:00 2,8 2,8 2,7 4,2 7,5 14 7 22 12 SSE 1018,5 0,3 0 0,0
25.01.2020 21:00:00 2,8 2,8 2,6 4,2 7,6 12 7 24 13 SE 1018,4 0,3 0 0,0
25.01.2020 20:00:00 2,8 2,8 2,7 4,2 7,5 14 8 28 15 ESE 1018,4 0,2 0 0,0
25.01.2020 19:00:00 3,2 3,2 3,0 4,1 7,5 16 9 27 14 SE 1018,4 0,2 0 0,0
25.01.2020 18:00:00 3,3 3,3 3,1 4,1 7,6 17 9 28 15 SE 1018,5 0,2 0 0,0
25.01.2020 17:00:00 3,2 3,2 3,1 4,0 7,6 16 8 24 13 SE 1018,6 0,5 0 0,0
25.01.2020 16:00:00 3,0 3,0 3,2 3,9 7,6 15 8 27 15 SE 1019,1 0,5 0 0,0
25.01.2020 15:00:00 2,9 2,9 2,7 3,8 7,6 15 8 24 13 SSE 1019,6 0,6 0 0,0
25.01.2020 14:00:00 2,2 2,2 2,4 3,6 7,5 16 9 23 13 SE 1020,5 0,4 0 0,0
25.01.2020 13:00:00 1,7 1,7 1,9 3,5 7,5 10 6 20 11 ESE 1021,2 0,2 0 0,0
25.01.2020 12:00:00 1,3 1,3 1,1 3,5 7,6 13 7 19 10 SE 1021,8 0,2 0 0,0
25.01.2020 11:00:00 0,6 0,6 0,7 3,5 7,6 11 6 17 9 SE 1022,1 0,2 0 0,0
25.01.2020 10:00:00 0,3 0,3 0,1 3,5 7,6 9 5 17 9 SE 1021,9 0,2 0 0,0
25.01.2020 09:00:00 0,1 0,0 -0,1 3,5 7,6 9 5 19 10 ESE 1021,9 0,2 0 0,0
25.01.2020 08:00:00 0,1 0,0 0,0 3,6 7,6 11 6 18 10 SE 1021,5 0,2 0 0,0
25.01.2020 07:00:00 0,1 0,0 0,0 3,6 7,6 9 5 15 8 ESE 1021,4 0,2 0 0,0
25.01.2020 06:00:00 0,3 0,2 0,1 3,6 7,6 9 5 14 8 SE 1021,6 0,2 0 0,0
25.01.2020 05:00:00 0,2 0,1 0,0 3,6 7,6 7 4 11 6 ESE 1021,8 0,2 0 0,0
25.01.2020 04:00:00 0,0 -0,1 -0,3 3,7 7,6 4 2 10 5 ESE 1022,1 0,2 0 0,0
25.01.2020 03:00:00 -0,3 -0,4 -0,4 3,8 7,6 7 4 14 7 SE 1022,6 0,2 0 0,0
25.01.2020 02:00:00 -0,2 -0,5 -0,5 3,8 7,6 8 4 14 8 SE 1022,8 0,3 0 0,0
25.01.2020 01:00:00 -0,1 -0,7 -0,3 3,9 7,6 8 5 16 9 SE 1022,9 2,0 0 0,0
25.01.2020 00:00:00 0,1 -0,9 -0,1 3,9 7,6 6 3 13 7 ESE 1023,2 2,8 0 0,0
24.01.2020 23:00:00 0,2 -0,9 0,1 4,0 7,6 5 3 12 6 SSE 1023,5 3,6 0 0,0
24.01.2020 22:00:00 0,2 -1,2 0,1 4,0 7,6 4 2 13 7 S 1023,8 4,3 0 0,0
24.01.2020 21:00:00 0,3 -1,1 0,2 4,1 7,6 7 4 10 6 SE 1023,7 4,4 0 0,0
24.01.2020 20:00:00 0,3 -1,3 0,2 4,2 7,6 3 2 13 7 SE 1023,7 4,5 0 0,0
24.01.2020 19:00:00 0,7 -0,8 0,6 4,2 7,6 8 4 15 8 SSE 1023,2 3,9 0 0,0
24.01.2020 18:00:00 0,9 -0,7 0,8 4,2 7,6 5 3 13 7 SSE 1023,2 4,6 0 0,0
24.01.2020 17:00:00 1,0 -0,5 1,0 4,2 7,6 6 4 16 9 SSE 1022,9 5 0 0,0
24.01.2020 16:00:00 0,9 -0,6 1,2 4,2 7,7 6 3 14 8 SE 1023,1 6 0 0,0
24.01.2020 15:00:00 1,0 0,0 1,3 4,2 7,7 10 5 15 8 E 1023,4 6 0 0,0
24.01.2020 14:00:00 0,8 -0,4 1,4 4,1 7,7 7 4 11 6 ESE 1023,8 5 0 0,0
24.01.2020 13:00:00 0,7 -0,3 1,1 4,1 7,6 4 2 9 5 N 1024,6 5 0 0,0
24.01.2020 12:00:00 0,7 0,0 0,7 4,2 7,6 2 1 10 5 WSW 1025,0 4,4 0 0,0
24.01.2020 11:00:00 0,4 0,0 0,3 4,2 7,7 4 2 11 6 S 1024,6 3,4 0 0,0
24.01.2020 10:00:00 0,2 -0,4 0,3 4,3 7,7 5 3 10 5 SSE 1024,6 3,0 0 0,0
24.01.2020 09:00:00 0,4 0,0 0,2 4,4 7,7 8 4 14 8 ESE 1024,1 2,6 0 0,0
24.01.2020 08:00:00 0,5 -0,2 0,3 4,4 7,7 6 3 11 6 ESE 1024,2 4,5 0 0,0
24.01.2020 07:00:00 0,6 -0,1 0,5 4,5 7,7 6 4 13 7 ESE 1024,0 4,8 0 0,0
24.01.2020 06:00:00 1,1 0,4 0,9 4,6 7,7 9 5 14 8 SE 1024,2 2,8 0 0,0
24.01.2020 05:00:00 1,3 0,4 1,2 4,6 7,7 9 5 15 8 SE 1024,5 2,9 0 0,0
24.01.2020 04:00:00 1,7 0,8 1,6 4,7 7,7 8 4 13 7 E 1024,6 2,9 0 0,0
24.01.2020 03:00:00 1,9 0,9 1,8 4,7 7,7 6 3 12 7 E 1025,1 3,2 0 0,0
24.01.2020 02:00:00 2,0 1,0 1,9 4,7 7,7 5 3 9 5 ESE 1025,7 3,2 0 0,0
24.01.2020 01:00:00 2,3 1,3 2,1 4,8 7,7 4 2 15 8 SSE 1026,4 3,5 0 0,0
24.01.2020 00:00:00 2,7 1,8 2,6 4,8 7,7 6 3 16 9 SSE 1026,5 2,4 0 0,0
23.01.2020 23:00:00 3,1 2,1 3,0 4,8 7,7 8 4 18 10 SE 1026,8 2,5 0 0,0
23.01.2020 22:00:00 3,4 2,1 3,2 4,9 7,7 8 4 17 9 E 1026,7 3,5 0 0,0
23.01.2020 21:00:00 3,7 1,6 3,6 4,9 7,7 8 4 20 11 E 1026,6 6 0 0,0
23.01.2020 20:00:00 4,2 1,9 4,0 5,0 7,7 9 5 16 9 E 1026,7 7 0 0,0
23.01.2020 19:00:00 4,5 2,0 4,1 5,0 7,8 12 6 24 13 ENE 1027,1 8 0 0,0
23.01.2020 18:00:00 4,7 2,1 4,3 5,0 7,8 16 9 26 14 ENE 1027,5 9 0 0,0
23.01.2020 17:00:00 5,2 2,5 4,8 4,9 7,7 14 8 24 13 NE 1027,8 11 2 0,0
23.01.2020 16:00:00 5,9 2,5 6,6 4,7 7,8 16 9 27 15 E 1028,3 14 7 0,0
23.01.2020 15:00:00 6,6 2,9 8,3 4,5 7,8 20 11 26 14 ENE 1028,7 17 60 0,0
23.01.2020 14:00:00 6,2 3,0 7,5 4,3 7,8 16 9 29 16 ENE 1029,7 12 60 0,0
23.01.2020 13:00:00 5,1 2,8 5,1 4,2 7,8 17 9 27 15 E 1030,6 9 51 0,0
23.01.2020 12:00:00 4,4 2,6 4,0 4,2 7,8 14 8 25 13 E 1031,7 9 19 0,0
23.01.2020 11:00:00 4,0 2,5 4,0 4,1 7,8 16 9 27 15 E 1032,2 7 52 0,0
23.01.2020 10:00:00 3,8 2,6 3,1 4,1 7,8 14 8 21 12 E 1032,2 6 9 0,0
23.01.2020 09:00:00 3,5 2,5 3,0 4,1 7,8 10 6 22 12 E 1032,5 5 0 0,0
23.01.2020 08:00:00 3,9 2,6 3,6 4,1 7,8 18 10 27 15 E 1032,5 9 0 0,0
23.01.2020 07:00:00 3,9 2,7 3,5 4,1 7,8 14 8 25 13 E 1032,5 7 0 0,0
23.01.2020 06:00:00 3,7 2,7 3,5 4,0 7,8 17 9 26 14 E 1032,7 7 0 0,0
23.01.2020 05:00:00 3,8 2,6 3,7 4,0 7,8 15 8 29 16 E 1033,0 6 0 0,0
23.01.2020 04:00:00 4,0 2,8 3,8 4,0 7,8 21 11 36 19 E 1033,7 6 0 0,0
23.01.2020 03:00:00 4,0 3,1 3,7 4,0 7,9 19 10 36 19 E 1034,4 4,6 0 0,0
23.01.2020 02:00:00 4,1 2,8 3,9 3,9 7,9 21 12 34 19 E 1035,1 10 0 0,0
23.01.2020 01:00:00 4,3 2,6 3,9 3,9 7,9 23 12 34 19 E 1035,6 13 0 0,0
23.01.2020 00:00:00 4,3 2,6 2,6 3,9 7,9 22 12 33 18 E 1035,8 17 0 0,0
22.01.2020 23:00:00 3,4 2,2 2,5 3,9 7,9 16 9 26 14 E 1035,7 12 0 0,0
22.01.2020 22:00:00 3,7 2,7 2,9 3,9 7,9 16 8 23 12 ENE 1035,7 6 0 0,0
22.01.2020 21:00:00 3,0 2,3 2,5 3,9 7,9 19 10 29 16 E 1036,2 3,2 0 0,0
22.01.2020 20:00:00 2,6 1,7 2,4 3,9 7,9 18 10 29 16 E 1036,3 3,7 0 0,0
22.01.2020 19:00:00 2,8 1,6 2,6 3,8 7,9 17 9 28 15 ENE 1035,9 4,3 0 0,0
22.01.2020 18:00:00 3,0 1,8 2,8 3,7 7,9 15 8 26 14 ENE 1035,7 4,7 0 0,0
22.01.2020 17:00:00 3,4 2,2 3,4 3,6 7,9 15 8 20 11 ENE 1035,8 6 0 0,0
22.01.2020 16:00:00 3,5 2,5 3,9 3,5 7,9 11 6 18 10 ENE 1035,8 8 0 0,0
22.01.2020 15:00:00 3,1 2,8 3,9 3,3 7,9 6 4 13 7 ENE 1036,1 5 0 0,0
22.01.2020 14:00:00 2,3 2,0 3,4 3,1 8,0 4 2 7 4 SSE 1037,2 - 0 0,0
22.01.2020 13:00:00 1,5 1,4 2,5 3,1 8,0 3 2 8 5 SE 1037,7 3,1 1 0,2
22.01.2020 12:00:00 1,0 0,9 0,0 3,1 8,0 6 3 11 6 SSE 1037,9 2,4 41 0,0
22.01.2020 11:00:00 -0,5 -0,6 -0,6 3,1 8,0 4 2 8 4 SSE 1037,9 2,2 0 0,0
22.01.2020 10:00:00 -1,0 -1,1 -1,4 3,1 8,0 3 2 6 3 E 1037,7 2,0 0 0,0
22.01.2020 09:00:00 -1,7 -2,0 -2,5 3,2 8,0 0 0 7 4 N 1037,5 0,4 0 0,0
22.01.2020 08:00:00 -2,0 -2,1 -2,4 3,2 7,9 6 3 9 5 SE 1037,3 0,3 0 0,0
22.01.2020 07:00:00 -2,3 -2,4 -2,8 3,3 8,0 4 2 11 6 E 1037,9 0,2 0 0,0
22.01.2020 06:00:00 -2,8 -2,9 -2,9 3,4 8,0 5 3 8 4 ESE 1038,0 0,2 0 0,0
22.01.2020 05:00:00 -2,6 -2,7 -2,7 3,4 8,0 4 2 8 5 SE 1038,1 0,1 0 0,0
22.01.2020 04:00:00 -2,4 -2,5 -2,4 3,5 8,0 5 3 10 5 SE 1038,8 0,1 0 0,0
22.01.2020 03:00:00 -2,4 -2,5 -2,5 3,6 8,0 3 1 6 4 ESE 1039,3 0,1 0 0,0
22.01.2020 02:00:00 -2,4 -2,5 -3,0 3,7 8,0 5 3 10 5 NNE 1039,6 0,1 0 0,0
22.01.2020 01:00:00 -2,9 -3,0 -3,0 3,8 8,0 2 1 11 6 NE 1039,4 0,1 0 0,0
22.01.2020 00:00:00 -2,6 -2,7 -2,8 3,9 8,0 3 2 10 5 E 1039,9 0,2 0 0,0
21.01.2020 23:00:00 -2,4 -2,5 -2,4 4,0 8,0 0 0 7 4 N 1040,1 0,1 0 0,0
21.01.2020 22:00:00 -1,9 -2,0 -1,9 4,1 8,0 8 4 11 6 SE 1040,4 0,1 0 0,0
21.01.2020 21:00:00 -1,4 -1,5 -1,4 4,3 8,1 4 2 12 6 SSE 1040,4 0,1 0 0,0
21.01.2020 20:00:00 -1,0 -1,1 -1,1 4,3 8,1 4 2 8 4 SE 1040,9 0,1 0 0,0
21.01.2020 19:00:00 -1,0 -1,1 -1,2 4,4 8,1 6 3 9 5 SE 1040,8 0,1 0 0,0
21.01.2020 18:00:00 -0,5 -0,6 -0,7 4,4 8,1 5 3 9 5 ESE 1040,8 0,1 0 0,0
21.01.2020 17:00:00 -0,1 -0,2 0,0 4,3 8,1 4 2 8 5 E 1041,0 0,1 3 0,0
21.01.2020 16:00:00 0,7 0,6 1,5 4,2 8,1 3 2 7 4 ENE 1041,2 0,2 11 0,0
21.01.2020 15:00:00 0,3 0,0 1,6 4,0 8,1 4 2 10 6 E 1041,7 0,2 1 0,0
21.01.2020 14:00:00 0,2 0,1 0,9 3,9 8,1 8 5 16 9 SSE 1042,4 0,5 0 0,0
21.01.2020 13:00:00 0,6 0,5 1,2 3,9 8,1 7 4 13 7 SE 1043,0 0,3 0 0,0
21.01.2020 12:00:00 0,1 0,0 0,9 3,8 8,1 4 2 9 5 N 1043,6 0,3 0 0,0
21.01.2020 11:00:00 0,1 0,0 0,5 3,8 8,1 4 2 7 4 NE 1043,5 0,3 0 0,0
21.01.2020 10:00:00 0,3 0,2 0,3 3,8 8,1 5 3 9 5 E 1043,3 0,2 0 0,0
21.01.2020 09:00:00 0,3 0,0 0,4 3,8 8,1 6 3 12 7 ENE 1043,0 0,1 0 0,0
21.01.2020 08:00:00 1,3 0,9 0,3 3,8 8,1 6 4 14 8 E 1042,8 2,1 0 0,0
21.01.2020 07:00:00 1,7 1,1 0,6 3,9 8,2 3 2 13 7 ENE 1042,6 2,4 0 0,0
21.01.2020 06:00:00 1,7 1,3 1,2 3,9 8,1 7 4 15 8 E 1042,7 3,1 0 0,0
21.01.2020 05:00:00 1,7 1,4 -0,5 4,0 8,2 6 4 11 6 E 1043,2 3,7 0 0,0
21.01.2020 04:00:00 1,8 1,2 0,6 4,1 8,2 5 3 16 9 E 1043,7 4,8 0 0,0
21.01.2020 03:00:00 2,2 2,1 1,3 4,1 8,2 8 4 17 9 ESE 1044,1 1,0 0 0,0
21.01.2020 02:00:00 1,8 1,4 0,6 4,3 8,2 7 4 14 8 ESE 1044,7 0,9 0 0,0
21.01.2020 01:00:00 2,5 2,1 0,9 4,3 8,2 7 4 11 6 SE 1045,0 0,3 0 0,0
21.01.2020 00:00:00 2,8 2,4 0,9 4,4 8,2 6 3 10 5 SE 1045,2 1,0 0 0,0
20.01.2020 23:00:00 3,3 2,9 1,1 4,4 8,2 0 0 2 1 N 1045,2 1,8 0 0,0
20.01.2020 22:00:00 3,1 2,2 1,2 4,5 8,2 3 1 5 3 NNE 1045,7 1,7 0 0,0
20.01.2020 21:00:00 3,8 3,2 2,8 4,5 8,2 0 0 9 5 N 1045,9 4,2 0 0,0
20.01.2020 20:00:00 4,0 3,4 3,3 4,5 8,2 5 3 10 5 N 1045,9 4,8 0 0,0
20.01.2020 19:00:00 4,1 3,5 3,4 4,4 8,2 7 4 11 6 N 1045,9 3,7 0 0,0
20.01.2020 18:00:00 4,2 3,3 3,3 4,3 8,2 7 4 9 5 NNW 1046,3 4,0 0 0,0
20.01.2020 17:00:00 5,0 3,8 4,7 4,1 8,2 4 2 8 4 NNE 1046,8 7 0 0,0
20.01.2020 16:00:00 5,3 3,9 5,7 3,9 8,2 6 3 7 4 NE 1047,0 9 0 0,0
20.01.2020 15:00:00 5,3 4,3 6,2 3,6 8,3 0 0 7 4 N 1047,4 6 0 0,0
20.01.2020 14:00:00 4,8 3,9 6,1 3,4 8,3 4 2 9 5 S 1048,0 3,6 0 0,0
20.01.2020 13:00:00 4,5 3,9 5,8 3,3 8,3 5 3 10 5 E 1048,7 4,7 16 0,0
20.01.2020 12:00:00 4,0 3,9 1,5 3,3 8,3 5 3 9 5 ENE 1049,2 4,8 27 0,0
20.01.2020 11:00:00 1,2 1,1 -0,3 3,4 8,3 6 3 11 6 ESE 1049,5 3,3 15 0,2
20.01.2020 10:00:00 0,1 -0,2 -2,2 3,4 8,3 4 2 9 5 E 1049,4 0,8 31 0,0
20.01.2020 09:00:00 0,3 0,0 -2,7 3,5 8,3 3 2 5 3 NNE 1048,9 1,3 0 0,0
20.01.2020 08:00:00 0,9 0,8 -2,8 3,6 8,3 3 1 5 3 NNW 1048,6 0,8 0 0,0
20.01.2020 07:00:00 0,6 0,3 -2,5 3,6 8,3 5 3 8 5 NNW 1048,6 0,6 0 0,0
20.01.2020 06:00:00 0,2 -0,1 -1,8 3,7 8,3 8 4 12 6 NNW 1048,5 1,4 0 0,0
20.01.2020 05:00:00 0,6 0,2 -2,3 3,8 8,3 8 5 9 5 NNW 1048,1 0,3 0 0,0
20.01.2020 04:00:00 1,2 0,8 -2,1 3,9 8,4 3 1 6 3 NW 1047,7 0,8 0 0,0
20.01.2020 03:00:00 2,2 1,8 -1,4 4,0 8,4 2 1 8 4 SSW 1048,2 10 0 0,0
20.01.2020 02:00:00 1,6 0,6 -2,0 4,1 8,4 5 3 6 4 W 1048,3 8 0 0,0
20.01.2020 01:00:00 2,9 1,7 0,0 4,2 8,4 2 1 22 12 N 1048,4 13 0 0,0
20.01.2020 00:00:00 3,7 2,4 2,1 4,3 8,4 16 8 24 13 NNE 1047,9 15 0 0,0

tt = Température de l'air
td = dewpoint
tt 5cm = Température de l'air 5cm
tt -20cm = Température de l'air -20cm
tt -100cm = Température de l'air -100cm
ff = Vitesse du vent
fx = gusts
dd = Direction du vent
ppp = reduced air pressure
vv = visibility
sd = Ensoleillement
rr = Quantités de précipitations

stations d'obs. à proximité